| time (UTC) | temp F | wind direction | speed MPH | gust MPH | rain 1hr in | rain 24hr in | rain mn in | humidity % | barometer mb |
| 20260504030021 | 59 | 192 | 0.0 | 0.0 | 0.00 | 0.00 | 0.00 | 979.8 | |
| 20260504025513 | 59 | 224 | 0.0 | 0.0 | 0.00 | 0.00 | 0.00 | 979.8 | |
| 20260504025020 | 59 | 196 | 0.0 | 0.0 | 0.00 | 0.00 | 0.00 | 979.8 | |
| 20260504024534 | 59 | 200 | 0.0 | 0.0 | 0.00 | 0.00 | 0.00 | 979.8 | |
| 20260504024017 | 59 | 187 | 0.0 | 0.0 | 0.00 | 0.00 | 0.00 | 979.8 | |
| 20260504023514 | 59 | 198 | 0.0 | 0.0 | 0.00 | 0.00 | 0.00 | 979.8 | |
| 20260504023027 | 59 | 197 | 0.0 | 0.0 | 0.00 | 0.00 | 0.00 | 979.8 | |
| 20260504022514 | 59 | 229 | 0.0 | 0.0 | 0.00 | 0.00 | 0.00 | 979.8 | |
| 20260504022013 | 58 | 204 | 0.0 | 0.0 | 0.00 | 0.00 | 0.00 | 979.8 | |
| 20260504021515 | 58 | 214 | 0.0 | 0.0 | 0.00 | 0.00 | 0.00 | 979.8 | |
| 20260504021013 | 58 | 207 | 0.0 | 0.0 | 0.00 | 0.00 | 0.00 | 979.8 | |
| 20260504020514 | 58 | 213 | 0.0 | 0.0 | 0.00 | 0.00 | 0.00 | 979.8 | |
| 20260504020024 | 58 | 218 | 3.0 | 0.0 | 0.00 | 0.00 | 0.00 | 979.8 | |
| 20260504015534 | 58 | 208 | 0.0 | 0.0 | 0.00 | 0.00 | 0.00 | 979.8 | |
| 20260504015018 | 58 | 208 | 0.0 | 0.0 | 0.00 | 0.00 | 0.00 | 979.8 | |
| 20260504014514 | 59 | 208 | 0.0 | 0.0 | 0.00 | 0.00 | 0.00 | 979.8 | |
| 20260504014013 | 59 | 208 | 0.0 | 0.0 | 0.00 | 0.00 | 0.00 | 979.8 | |
| 20260504013513 | 59 | 208 | 0.0 | 0.0 | 0.00 | 0.00 | 0.00 | 979.8 | |
| 20260504013014 | 60 | 208 | 0.0 | 0.0 | 0.00 | 0.00 | 0.00 | 979.8 | |
| 20260504012513 | 60 | 208 | 0.0 | 0.0 | 0.00 | 0.00 | 0.00 | 979.8 | |
| 20260504012014 | 61 | 208 | 0.0 | 0.0 | 0.00 | 0.00 | 0.00 | 979.8 | |
| 20260504011513 | 61 | 208 | 0.0 | 0.0 | 0.00 | 0.00 | 0.00 | 978.8 | |
| 20260504011020 | 61 | 208 | 0.0 | 0.0 | 0.00 | 0.00 | 0.00 | 978.8 | |
| 20260504010514 | 62 | 208 | 0.0 | 0.0 | 0.00 | 0.00 | 0.00 | 978.8 | |
| 20260504010014 | 62 | 218 | 0.0 | 0.0 | 0.00 | 0.00 | 0.00 | 979.8 | |
| 20260504005513 | 62 | 233 | 0.0 | 0.0 | 0.00 | 0.00 | 0.00 | 979.8 | |
| 20260504005015 | 63 | 243 | 0.0 | 0.0 | 0.00 | 0.00 | 0.00 | 979.8 | |
| 20260504004513 | 63 | 233 | 0.0 | 0.0 | 0.00 | 0.00 | 0.00 | 979.8 | |
| 20260504004012 | 63 | 205 | 0.0 | 0.0 | 0.00 | 0.00 | 0.00 | 979.8 | |
| 20260504003514 | 63 | 232 | 2.0 | 7.0 | 0.00 | 0.00 | 0.00 | 979.8 | |
| 20260504003022 | 64 | 222 | 3.0 | 0.0 | 0.00 | 0.00 | 0.00 | 979.8 | |
| 20260504002513 | 64 | 191 | 3.0 | 3.0 | 0.00 | 0.00 | 0.00 | 979.8 | |
| 20260504002017 | 64 | 239 | 2.0 | 2.0 | 0.00 | 0.00 | 0.00 | 979.8 | |
| 20260504001514 | 64 | 243 | 4.0 | 5.0 | 0.00 | 0.00 | 0.00 | 979.8 | |
| 20260504001034 | 64 | 233 | 4.0 | 4.0 | 0.00 | 0.00 | 0.00 | 979.8 | |
| 20260504000514 | 64 | 335 | 4.0 | 4.0 | 0.00 | 0.00 | 0.00 | 979.8 | |
| 20260504000039 | 64 | 192 | 4.0 | 4.0 | 0.00 | 0.00 | 0.00 | 979.8 | |
| 20260503235513 | 65 | 210 | 3.0 | 5.0 | 0.00 | 0.00 | 0.00 | 979.8 | |
| 20260503235018 | 65 | 259 | 3.0 | 5.0 | 0.00 | 0.00 | 0.00 | 979.8 | |
| 20260503234513 | 65 | 248 | 3.0 | 3.0 | 0.00 | 0.00 | 0.00 | 978.8 | |
| 20260503234013 | 65 | 189 | 4.0 | 5.0 | 0.00 | 0.00 | 0.00 | 978.8 | |
| 20260503233513 | 65 | 213 | 5.0 | 4.0 | 0.00 | 0.00 | 0.00 | 978.8 | |
| 20260503233037 | 65 | 209 | 4.0 | 3.0 | 0.00 | 0.00 | 0.00 | 979.8 | |
| 20260503232534 | 65 | 161 | 4.0 | 0.0 | 0.00 | 0.00 | 0.00 | 979.8 | |
| 20260503232019 | 66 | 230 | 0.0 | 4.0 | 0.00 | 0.00 | 0.00 | 979.8 | |
| 20260503231515 | 66 | 231 | 6.0 | 5.0 | 0.00 | 0.00 | 0.00 | 978.8 | |
| 20260503231018 | 66 | 244 | 4.0 | 8.0 | 0.00 | 0.00 | 0.00 | 978.8 | |
| 20260503230515 | 66 | 210 | 8.0 | 6.0 | 0.00 | 0.00 | 0.00 | 978.8 | |
| 20260503230020 | 66 | 154 | 0.0 | 0.0 | 0.00 | 0.00 | 0.00 | 979.8 | |
| 20260503225514 | 66 | 217 | 4.0 | 5.0 | 0.00 | 0.00 | 0.00 | 979.8 | |
| 20260503225013 | 66 | 241 | 5.0 | 6.0 | 0.00 | 0.00 | 0.00 | 979.8 | |
| 20260503224534 | 66 | 212 | 7.0 | 5.0 | 0.00 | 0.00 | 0.00 | 979.8 | |
| 20260503224020 | 66 | 236 | 3.0 | 4.0 | 0.00 | 0.00 | 0.00 | 979.8 | |
| 20260503223513 | 66 | 216 | 4.0 | 10.0 | 0.00 | 0.00 | 0.00 | 979.8 | |
| 20260503223037 | 66 | 236 | 6.0 | 2.0 | 0.00 | 0.00 | 0.00 | 979.8 | |
| 20260503222516 | 66 | 210 | 4.0 | 6.0 | 0.00 | 0.00 | 0.00 | 979.8 | |
| 20260503222015 | 66 | 229 | 8.0 | 8.0 | 0.00 | 0.00 | 0.00 | 979.8 | |
| 20260503221514 | 66 | 200 | 6.0 | 6.0 | 0.00 | 0.00 | 0.00 | 979.8 | |
| 20260503221017 | 66 | 191 | 6.0 | 3.0 | 0.00 | 0.00 | 0.00 | 979.8 | |
| 20260503220514 | 66 | 236 | 7.0 | 4.0 | 0.00 | 0.00 | 0.00 | 979.8 | |
| 20260503220018 | 66 | 196 | 6.0 | 8.0 | 0.00 | 0.00 | 0.00 | 979.8 | |
| 20260503215514 | 66 | 197 | 3.0 | 8.0 | 0.00 | 0.00 | 0.00 | 979.8 | |
| 20260503215013 | 66 | 209 | 8.0 | 8.0 | 0.00 | 0.00 | 0.00 | 979.8 | |
| 20260503214514 | 66 | 171 | 4.0 | 6.0 | 0.00 | 0.00 | 0.00 | 979.8 | |
| 20260503214035 | 66 | 239 | 5.0 | 8.0 | 0.00 | 0.00 | 0.00 | 979.8 | |
| 20260503213513 | 66 | 12 | 8.0 | 5.0 | 0.00 | 0.00 | 0.00 | 979.8 | |
| 20260503213027 | 66 | 190 | 7.0 | 8.0 | 0.00 | 0.00 | 0.00 | 979.8 | |
| 20260503212513 | 66 | 200 | 8.0 | 6.0 | 0.00 | 0.00 | 0.00 | 979.8 | |
| 20260503212014 | 67 | 221 | 8.0 | 7.0 | 0.00 | 0.00 | 0.00 | 979.8 | |
| 20260503211534 | 67 | 222 | 6.0 | 11.0 | 0.00 | 0.00 | 0.00 | 980.8 | |
| 20260503211016 | 66 | 227 | 4.0 | 6.0 | 0.00 | 0.00 | 0.00 | 980.8 | |
| 20260503210514 | 66 | 220 | 8.0 | 8.0 | 0.00 | 0.00 | 0.00 | 980.8 | |
| 20260503210014 | 66 | 209 | 10.0 | 6.0 | 0.00 | 0.00 | 0.00 | 980.8 | |
| 20260503205516 | 67 | 203 | 8.0 | 11.0 | 0.00 | 0.00 | 0.00 | 980.8 | |
| 20260503205013 | 67 | 208 | 8.0 | 10.0 | 0.00 | 0.00 | 0.00 | 980.8 | |
| 20260503204535 | 67 | 165 | 8.0 | 3.0 | 0.00 | 0.00 | 0.00 | 980.8 | |
| 20260503204015 | 67 | 211 | 12.0 | 13.0 | 0.00 | 0.00 | 0.00 | 980.8 | |
| 20260503203513 | 66 | 220 | 7.0 | 8.0 | 0.00 | 0.00 | 0.00 | 980.8 | |
| 20260503203013 | 66 | 256 | 6.0 | 11.0 | 0.00 | 0.00 | 0.00 | 980.8 | |
| 20260503202513 | 66 | 202 | 7.0 | 8.0 | 0.00 | 0.00 | 0.00 | 980.8 | |
| 20260503202034 | 66 | 203 | 9.0 | 10.0 | 0.00 | 0.00 | 0.00 | 980.8 | |
| 20260503201514 | 66 | 195 | 6.0 | 8.0 | 0.00 | 0.00 | 0.00 | 981.8 | |
| 20260503201018 | 67 | 181 | 5.0 | 6.0 | 0.00 | 0.00 | 0.00 | 981.8 | |
| 20260503200513 | 66 | 140 | 6.0 | 6.0 | 0.00 | 0.00 | 0.00 | 981.8 | |
| 20260503200034 | 66 | 233 | 4.0 | 4.0 | 0.00 | 0.00 | 0.00 | 981.8 | |
| 20260503195513 | 65 | 233 | 10.0 | 4.0 | 0.00 | 0.00 | 0.00 | 981.8 | |
| 20260503195035 | 65 | 256 | 6.0 | 5.0 | 0.00 | 0.00 | 0.00 | 981.8 | |
| 20260503194525 | 65 | 184 | 7.0 | 17.0 | 0.00 | 0.00 | 0.00 | 981.8 | |
| 20260503194017 | 64 | 192 | 7.0 | 6.0 | 0.00 | 0.00 | 0.00 | 981.8 | |
| 20260503193537 | 64 | 222 | 9.0 | 7.0 | 0.00 | 0.00 | 0.00 | 981.8 | |
| 20260503193023 | 64 | 205 | 8.0 | 4.0 | 0.00 | 0.00 | 0.00 | 981.8 | |
| 20260503192513 | 64 | 126 | 9.0 | 9.0 | 0.00 | 0.00 | 0.00 | 981.8 | |
| 20260503192016 | 64 | 198 | 6.0 | 6.0 | 0.00 | 0.00 | 0.00 | 981.8 | |
| 20260503191516 | 64 | 238 | 6.0 | 8.0 | 0.00 | 0.00 | 0.00 | 981.8 | |
| 20260503191013 | 64 | 120 | 4.0 | 5.0 | 0.00 | 0.00 | 0.00 | 981.8 | |
| 20260503190517 | 64 | 199 | 6.0 | 6.0 | 0.00 | 0.00 | 0.00 | 981.8 | |
| 20260503190024 | 63 | 182 | 7.0 | 4.0 | 0.00 | 0.00 | 0.00 | 981.8 | |
| 20260503185515 | 63 | 208 | 7.0 | 6.0 | 0.00 | 0.00 | 0.00 | 981.8 | |
| 20260503185019 | 62 | 220 | 8.0 | 3.0 | 0.00 | 0.00 | 0.00 | 981.8 | |
| 20260503184513 | 63 | 237 | 8.0 | 8.0 | 0.00 | 0.00 | 0.00 | 982.8 | |
| 20260503184013 | 62 | 233 | 5.0 | 4.0 | 0.00 | 0.00 | 0.00 | 982.8 | |
| 20260503183525 | 62 | 158 | 6.0 | 5.0 | 0.00 | 0.00 | 0.00 | 982.8 | |
| 20260503183013 | 62 | 193 | 6.0 | 6.0 | 0.00 | 0.00 | 0.00 | 982.8 | |
| 20260503182539 | 62 | 221 | 8.0 | 11.0 | 0.00 | 0.00 | 0.00 | 982.8 | |
| 20260503182016 | 62 | 240 | 7.0 | 9.0 | 0.00 | 0.00 | 0.00 | 982.8 | |
| 20260503181521 | 61 | 212 | 7.0 | 11.0 | 0.00 | 0.00 | 0.00 | 982.8 | |
| 20260503181034 | 60 | 195 | 4.0 | 6.0 | 0.00 | 0.00 | 0.00 | 982.8 | |
| 20260503180536 | 59 | 220 | 5.0 | 3.0 | 0.00 | 0.00 | 0.00 | 982.8 | |
| 20260503180014 | 59 | 193 | 6.0 | 11.0 | 0.00 | 0.00 | 0.00 | 983.8 | |
| 20260503175517 | 59 | 170 | 7.0 | 8.0 | 0.00 | 0.00 | 0.00 | 983.8 | |
| 20260503175019 | 59 | 177 | 6.0 | 6.0 | 0.00 | 0.00 | 0.00 | 983.8 | |
| 20260503174513 | 59 | 190 | 6.0 | 8.0 | 0.00 | 0.00 | 0.00 | 983.8 | |
| 20260503174018 | 60 | 225 | 6.0 | 6.0 | 0.00 | 0.00 | 0.00 | 983.8 | |
| 20260503173514 | 60 | 182 | 6.0 | 3.0 | 0.00 | 0.00 | 0.00 | 983.8 | |
| 20260503173027 | 60 | 241 | 6.0 | 13.0 | 0.00 | 0.00 | 0.00 | 983.8 | |
| 20260503172514 | 59 | 200 | 7.0 | 8.0 | 0.00 | 0.00 | 0.00 | 983.8 | |
| 20260503172013 | 58 | 218 | 8.0 | 6.0 | 0.00 | 0.00 | 0.00 | 983.8 | |
| 20260503171520 | 58 | 187 | 6.0 | 8.0 | 0.00 | 0.00 | 0.00 | 984.8 | |
| 20260503171014 | 57 | 171 | 6.0 | 10.0 | 0.00 | 0.00 | 0.00 | 984.8 | |
| 20260503170513 | 56 | 233 | 8.0 | 11.0 | 0.00 | 0.00 | 0.00 | 984.8 | |
| 20260503150514 | 57 | 185 | 5.0 | 6.0 | 0.00 | 0.00 | 0.00 | 986.8 | |
| 20260503131014 | 52 | 221 | 6.0 | 8.0 | 0.00 | 0.00 | 0.00 | 986.8 | |
| 20260503130536 | 52 | 258 | 4.0 | 3.0 | 0.00 | 0.00 | 0.00 | 986.8 | |
| 20260503110523 | 47 | 188 | 4.0 | 8.0 | 0.00 | 0.00 | 0.00 | 985.8 | |
| 20260503081515 | 45 | 217 | 3.0 | 3.0 | 0.00 | 0.00 | 0.00 | 987.8 | |
| 20260503081040 | 45 | 240 | 0.0 | 0.0 | 0.00 | 0.00 | 0.00 | 987.8 | |
| 20260503080525 | 45 | 233 | 2.0 | 4.0 | 0.00 | 0.00 | 0.00 | 987.8 | |
| 20260503072518 | 44 | 231 | 3.0 | 2.0 | 0.00 | 0.00 | 0.00 | 987.8 | |
| 20260503072013 | 44 | 226 | 0.0 | 0.0 | 0.00 | 0.00 | 0.00 | 987.8 | |
| 20260503071515 | 44 | 222 | 0.0 | 0.0 | 0.00 | 0.00 | 0.00 | 987.8 | |
| 20260503071014 | 43 | 217 | 0.0 | 0.0 | 0.00 | 0.00 | 0.00 | 987.8 | |
| 20260503070514 | 43 | 221 | 0.0 | 0.0 | 0.00 | 0.00 | 0.00 | 987.8 | |
| 20260503055014 | 44 | 199 | 0.0 | 0.0 | 0.00 | 0.00 | 0.00 | 987.8 | |
| 20260503054513 | 44 | 179 | 0.0 | 0.0 | 0.00 | 0.00 | 0.00 | 987.8 | |
| 20260503054014 | 44 | 223 | 0.0 | 0.0 | 0.00 | 0.00 | 0.00 | 987.8 | |
| 20260503053513 | 44 | 225 | 0.0 | 0.0 | 0.00 | 0.00 | 0.00 | 987.8 | |
| 20260503053015 | 44 | 221 | 0.0 | 4.0 | 0.00 | 0.00 | 0.00 | 988.8 | |
| 20260503052521 | 44 | 228 | 0.0 | 2.0 | 0.00 | 0.00 | 0.00 | 988.8 | |
| 20260503052013 | 44 | 205 | 0.0 | 0.0 | 0.00 | 0.00 | 0.00 | 988.8 | |
| 20260503051514 | 43 | 235 | 0.0 | 0.0 | 0.00 | 0.00 | 0.00 | 988.8 | |
| 20260503051025 | 43 | 189 | 0.0 | 0.0 | 0.00 | 0.00 | 0.00 | 988.8 | |
| 20260503050518 | 43 | 217 | 0.0 | 2.0 | 0.00 | 0.00 | 0.00 | 988.8 | |
| 20260503050023 | 43 | 209 | 2.0 | 0.0 | 0.00 | 0.00 | 0.00 | 988.8 | |
| 20260503045515 | 43 | 229 | 0.0 | 0.0 | 0.00 | 0.00 | 0.00 | 988.8 | |
| 20260503045014 | 43 | 205 | 0.0 | 0.0 | 0.00 | 0.00 | 0.00 | 988.8 | |
| 20260503044524 | 43 | 206 | 0.0 | 0.0 | 0.00 | 0.00 | 0.00 | 988.8 | |
| 20260503044019 | 43 | 237 | 0.0 | 0.0 | 0.00 | 0.00 | 0.00 | 988.8 | |
| 20260503043515 | 43 | 238 | 0.0 | 0.0 | 0.00 | 0.00 | 0.00 | 988.8 | |
| 20260503043039 | 43 | 233 | 0.0 | 0.0 | 0.00 | 0.00 | 0.00 | 988.8 | |
| 20260503042514 | 43 | 218 | 0.0 | 0.0 | 0.00 | 0.00 | 0.00 | 988.8 | |
| 20260503042015 | 43 | 218 | 0.0 | 0.0 | 0.00 | 0.00 | 0.00 | 988.8 | |
| 20260503041521 | 43 | 218 | 0.0 | 0.0 | 0.00 | 0.00 | 0.00 | 988.8 | |
| 20260503041014 | 43 | 218 | 0.0 | 0.0 | 0.00 | 0.00 | 0.00 | 988.8 | |
| 20260503040519 | 43 | 225 | 0.0 | 0.0 | 0.00 | 0.00 | 0.00 | 988.8 | |
| 20260503040016 | 43 | 225 | 0.0 | 0.0 | 0.00 | 0.00 | 0.00 | 988.8 | |
| 20260503035514 | 43 | 225 | 0.0 | 0.0 | 0.00 | 0.00 | 0.00 | 988.8 | |
| 20260503035015 | 44 | 225 | 0.0 | 0.0 | 0.00 | 0.00 | 0.00 | 988.8 | |
| 20260503034516 | 44 | 225 | 0.0 | 0.0 | 0.00 | 0.00 | 0.00 | 988.8 | |
| 20260503034013 | 44 | 225 | 0.0 | 0.0 | 0.00 | 0.00 | 0.00 | 988.8 | |
| 20260503033514 | 44 | 225 | 0.0 | 0.0 | 0.00 | 0.00 | 0.00 | 988.8 | |
| 20260503033020 | 44 | 225 | 0.0 | 0.0 | 0.00 | 0.00 | 0.00 | 988.8 | |
| 20260503032525 | 44 | 211 | 0.0 | 0.0 | 0.00 | 0.00 | 0.00 | 988.8 | |
| 20260503032013 | 44 | 210 | 0.0 | 0.0 | 0.00 | 0.00 | 0.00 | 988.8 | |
| 20260503031516 | 44 | 213 | 0.0 | 0.0 | 0.00 | 0.00 | 0.00 | 989.8 | |
| 20260503031013 | 45 | 212 | 0.0 | 0.0 | 0.00 | 0.00 | 0.00 | 989.8 | |
| 20260503030513 | 45 | 207 | 0.0 | 0.0 | 0.00 | 0.00 | 0.00 | 989.8 |